FACSAT-1 (43721 NORAD) Tracking and Keplerian Element Data

This shows tracking and keplerian element data for the satellite.

Feedback or suggestion? Click here.




ElementValue
Catalog43721
NameFACSAT-1
Epoch Orbit819
Epoch Day21.87392851
Epoch Year2019
RAAN91.8863
Inclination97.4783
Eccentricity0.0019649
Argument of Perigee128.0838
Mean Anonmoly232.2176
Mean Motion15.25836527
Decay Rate1.034E-05
L11 43721U 18096C 19021.87392851 .00001034 00000-0 43132-4 0 9992
L22 43721 97.4783 91.8863 0019649 128.0838 232.2176 15.25836527 8196

Live tracking and technical data element details for FACSAT-1 (NORAD 43721). FACSAT-1 can be tracked NOW for your location showing map with azimuth and elevation plus other details from your city location.

Track the satellite on the map from your city or location and see movement details for azimuth, elevation, latitude, longitude, range, height, and movement on the map or in text.







IsCatalogInMostPopularTable: catalog: 43721, numindb: 25
Update: records affected: 1



GetName: 43721 FACSAT-1

Hit Count: updated at: Wed, 23 Jan 2019 03:19:25 GMT